Location: ??????
(41.3794°N, 22.5014°E)
Time: 07:13:29
(UTC+00:00)

Cosmos 1603 - Pass Details

Date: 30 November 2020
Orbit: 831 x 859 km, 71.0° (Epoch: 17 January)

Event Time Altitude Azimuth Distance (km) Brightness Sun altitude
Rises 16:16:04 0° 187° (S) 3,375 7.2 -13.7°
Reaches altitude 10° 16:18:33 10° 182° (S) 2,442 6.3 -14.1°
Maximum altitude 16:23:56 51° 108° (ESE) 1,046 3.9 -15.1°
Enters shadow 16:28:00 18° 39° (NE) 1,966 5.1 -15.8°
